Theta_e
348 347 341 338 337 336 333 331 328 327 324 323 322 322 322 323 325 326 324 321 320 320 319 318 316 316 314 314 313 313 312 311 306 309 311 312 309 307 306 307 307 307 307
345 341 336 334 333 332 329 328 326 324 324 323 322 321 321 322 323 321 319 319 318 317 317 316 314 315 312 311 310 310 311 310 308 305 307 308 306 305 305 304 305 305 305
340 335 332 331 330 327 327 325 325 323 322 321 321 320 319 320 320 321 320 319 318 317 316 316 313 312 309 308 307 307 309 309 309 306 305 307 306 305 302 303 303 303 305
332 329 328 327 326 326 324 323 322 322 320 320 319 316 314 312 313 317 320 318 317 317 317 317 314 310 306 304 303 305 307 307 308 307 305 304 303 303 302 299 299 301 301
326 324 323 324 325 324 321 321 320 320 319 317 314 311 309 306 302 304 312 318 316 315 316 314 312 308 305 303 302 301 303 306 307 305 302 302 301 300 298 300 298 299 301
321 321 322 322 321 319 319 319 319 318 317 315 312 308 305 300 297 299 302 313 317 315 312 310 311 305 300 301 302 305 307 307 305 304 301 298 299 300 300 299 298 297 295
320 320 320 319 318 318 318 318 318 317 316 312 308 303 297 296 295 296 300 310 316 315 313 307 305 303 298 297 299 308 307 307 307 305 298 298 297 297 298 297 297 297 298
319 318 318 318 317 318 317 317 317 317 315 312 309 303 298 294 294 294 297 312 314 314 306 304 301 300 296 295 298 303 304 305 304 304 301 300 299 298 299 298 298 300 302
318 318 317 317 316 316 316 315 315 314 312 310 310 307 298 294 294 294 299 308 307 308 301 299 299 298 294 294 297 300 300 301 304 304 301 299 297 297 299 299 297 297 298
317 316 317 317 316 315 316 315 315 313 310 307 303 304 300 297 293 293 296 297 301 304 304 301 298 295 293 292 295 299 297 299 302 304 303 302 301 301 301 300 299 297 298
317 317 316 317 315 315 315 315 312 310 309 307 305 302 299 299 295 292 292 296 295 301 299 296 298 294 292 292 293 298 296 296 302 302 301 301 301 301 301 301 301 300 298
315 314 314 314 314 314 314 314 313 312 310 308 307 303 301 298 295 294 292 292 294 298 298 298 298 292 292 295 296 293 295 299 301 300 300 299 299 300 301 302 302 302 303
313 312 313 313 313 314 313 313 312 314 310 307 304 298 294 293 293 294 294 294 296 298 297 297 295 294 295 297 295 295 296 297 298 297 298 298 300 302 302 302 303 303 303
311 310 306 299 300 301 298 295 294 300 301 300 298 296 293 290 290 291 293 294 295 297 297 299 297 297 296 296 297 297 296 296 297 295 297 299 301 302 301 302 300 300 300
303 300 297 295 292 289 289 292 289 289 293 293 291 290 290 288 288 289 289 290 291 292 297 297 295 294 294 294 295 295 295 295 296 295 295 297 298 300 300 302 300 299 298
300 298 295 293 291 290 288 288 289 289 289 288 289 290 289 288 289 290 290 290 289 290 295 293 292 292 291 292 292 293 294 294 294 295 296 296 297 299 298 300 300 298 297
299 298 297 296 295 293 291 290 288 289 289 289 288 289 288 288 290 291 290 292 291 293 292 292 291 291 291 290 291 291 292 293 294 295 295 296 296 298 299 298 298 298 297
303 299 301 300 298 297 296 296 296 294 292 291 289 291 288 289 289 290 291 294 293 293 292 290 290 290 290 290 290 291 291 292 292 293 294 296 295 297 297 298 297 296 296
305 304 304 304 302 301 300 299 298 298 297 295 293 290 290 289 290 290 292 293 292 291 291 290 290 290 290 289 290 290 290 290 290 292 293 295 295 295 297 299 297 293 293
301 297 299 300 300 300 299 297 296 295 294 294 293 294 295 295 294 293 293 293 292 291 291 291 290 290 289 288 288 288 288 288 289 290 292 292 295 294 296 298 298 295 294
301 302 297 300 300 299 298 296 295 294 293 292 292 292 284 294 293 293 292 292 292 291 291 291 290 289 288 287 286 286 286 287 288 289 290 290 294 292 295 299 298 296 294
301 301 300 299 299 298 298 298 297 296 295 293 293 292 287 294 293 293 293 292 293 292 292 291 290 288 287 286 285 285 285 284 285 287 288 289 294 292 294 298 296 295 294
300 300 299 298 298 295 297 297 296 295 295 294 294 293 293 293 293 293 293 294 293 293 292 291 289 288 287 286 286 285 284 283 284 287 286 288 293 291 293 296 295 293 292
299 298 298 298 298 297 296 295 294 292 294 293 294 293 293 293 293 294 293 294 294 293 293 291 289 287 286 285 285 285 285 284 285 286 286 289 291 291 292 295 294 293 291
299 298 297 298 297 296 296 296 295 295 294 293 293 293 293 293 293 293 293 294 293 293 292 292 289 287 286 284 283 284 283 283 284 284 286 292 290 292 291 294 293 292 290
300 299 299 298 297 296 296 295 295 294 294 293 293 293 293 292 292 293 293 293 292 292 292 292 290 286 285 284 283 283 283 283 284 284 287 291 290 291 291 293 292 290 289
Wind_Speed
20 19 20 17 17 14 13 14 14 14 12 11 9 10 9 6 5 3 5 7 7 6 6 6 8 8 7 7 8 7 7 7 9 11 9 11 10 14 16 15 16 14 13
20 20 20 20 20 14 13 15 14 14 12 11 9 10 9 8 6 6 7 6 7 6 6 8 8 7 9 8 8 9 7 8 8 13 12 11 13 14 15 17 13 14 15
22 20 19 24 18 14 15 15 14 14 12 11 10 9 9 7 7 6 6 7 7 8 7 5 6 7 8 9 9 9 8 8 8 10 12 10 11 12 14 14 13 15 12
23 21 22 18 17 15 15 16 14 13 13 12 12 13 12 11 11 10 6 7 6 5 6 6 8 9 9 10 9 10 9 9 10 9 10 12 10 12 10 11 15 12 15
22 24 21 18 17 16 18 15 14 14 13 13 13 12 11 10 9 10 9 6 6 6 9 10 8 13 19 15 8 10 10 8 8 9 11 11 12 13 13 10 12 13 14
23 21 19 17 18 18 16 15 15 14 13 14 14 13 11 9 14 14 10 6 7 7 7 9 7 14 15 19 19 21 12 7 8 8 9 13 14 12 11 10 11 13 13
22 19 18 18 19 18 16 16 15 14 13 14 13 12 11 10 17 16 13 5 5 5 7 7 9 10 12 12 17 13 15 6 8 4 9 12 13 14 13 14 14 13 10
21 19 18 19 19 17 17 16 14 12 12 12 12 12 11 11 16 15 16 2 8 8 11 10 8 9 10 12 12 12 12 11 13 3 8 9 10 12 11 11 13 14 9
20 19 19 19 18 17 16 15 13 11 12 11 11 12 12 11 16 19 13 9 9 7 8 9 9 9 12 13 10 12 13 12 12 3 8 8 13 15 15 10 11 12 12
19 19 19 18 17 17 16 14 13 12 11 10 11 10 12 10 14 18 14 8 8 7 7 9 12 11 11 13 7 10 11 12 11 10 12 10 13 14 18 12 11 12 10
20 20 19 18 17 16 14 12 12 11 10 10 11 9 12 11 11 12 13 9 7 7 7 7 7 14 15 13 9 10 8 11 9 10 10 9 11 12 12 12 13 11 11
20 20 18 16 13 12 14 11 11 9 8 8 8 9 9 11 15 13 10 8 8 6 7 5 6 15 15 10 10 16 15 14 9 10 9 11 10 10 11 12 13 12 9
19 20 18 17 14 12 10 8 6 5 5 7 8 9 9 8 8 15 13 14 14 5 5 9 10 8 12 10 14 17 14 11 11 11 10 11 10 6 10 11 11 12 9
21 18 16 17 16 15 12 11 10 9 10 10 9 9 8 8 7 7 8 8 11 8 9 7 9 10 11 10 11 11 11 12 9 11 11 10 10 10 10 9 10 12 9
19 17 16 15 16 15 14 10 11 12 11 8 8 8 7 6 6 8 7 6 7 9 6 6 8 9 11 11 10 11 11 12 11 11 11 11 11 11 11 10 10 10 10
17 14 12 12 12 12 12 13 18 17 18 17 16 9 6 3 6 9 12 13 14 12 7 8 10 10 11 11 11 11 11 14 13 11 11 11 11 11 12 11 10 11 11
17 15 12 12 11 11 10 10 10 8 12 13 12 9 8 6 11 12 4 8 9 10 9 10 10 10 10 10 11 11 12 11 13 11 11 11 12 10 12 12 12 11 11
15 15 12 11 11 10 10 9 9 8 8 6 1 4 5 8 11 14 14 10 9 10 9 10 10 10 10 10 10 11 11 11 12 12 12 11 13 11 11 10 12 12 12
12 10 10 9 9 9 9 9 8 8 7 7 6 2 3 6 7 7 11 9 9 10 9 10 10 10 10 10 9 10 11 11 12 12 13 12 12 13 11 10 11 14 13
13 16 12 10 9 9 9 9 9 9 8 8 7 7 6 7 8 8 9 9 9 9 9 9 10 10 10 11 11 10 11 11 12 12 12 13 11 13 11 11 11 12 12
9 7 11 9 9 9 9 9 9 9 8 7 6 5 2 8 7 8 8 8 8 8 9 9 9 10 10 10 11 11 11 11 11 12 13 13 11 13 11 10 11 11 11
9 9 10 10 9 9 8 8 8 8 8 8 7 5 8 7 8 8 8 8 8 9 8 9 9 10 10 10 11 11 11 11 11 12 13 13 11 12 11 10 12 10 10
10 11 10 10 9 9 9 8 8 8 8 8 8 8 7 7 8 7 8 7 7 7 8 8 9 9 9 9 9 10 10 10 11 12 12 12 11 12 11 10 11 12 12
11 11 10 9 9 9 9 8 8 9 9 8 8 7 7 7 7 8 7 7 7 7 7 8 9 12 10 10 10 10 9 10 9 11 15 11 12 13 12 11 11 13 11
11 11 10 9 9 8 8 9 8 8 8 8 7 7 7 7 7 7 7 6 7 7 9 8 9 12 13 15 16 17 17 19 17 15 10 12 15 16 14 11 13 11 11
10 10 9 8 8 8 8 7 7 7 7 7 7 7 7 7 7 7 6 7 7 7 9 8 12 16 15 13 15 17 18 20 18 21 12 11 12 11 12 13 18 11 13
Wind_Direction
144 134 127 120 116 98 109 110 107 105 104 101 98 92 89 80 81 88 86 48 50 46 32 35 32 25 358 6 348 344 338 345 331 319 325 327 351 347 339 336 329 325 324
137 128 120 114 105 116 119 110 109 108 104 104 102 94 92 81 64 69 62 62 54 46 31 42 31 16 8 4 347 342 334 348 325 327 328 332 347 345 333 331 326 322 321
122 118 113 97 113 127 116 114 109 105 101 100 94 92 88 94 93 72 61 53 60 44 30 23 47 27 6 357 339 337 333 331 326 327 325 333 332 337 334 325 328 319 319
117 119 99 112 121 126 119 104 105 103 100 89 77 65 54 42 29 25 55 61 47 36 22 12 61 39 22 357 345 332 325 318 326 330 332 333 333 335 331 327 327 333 324
110 108 111 126 130 118 104 105 101 97 97 93 85 76 69 59 33 11 358 31 52 35 38 16 77 46 24 2 339 323 316 325 336 340 337 331 332 333 337 331 322 320 325
103 106 126 123 110 103 103 101 97 93 90 87 78 68 58 51 9 16 8 320 53 40 47 25 6 43 13 351 340 321 322 348 357 344 342 339 336 338 329 328 323 328 332
112 124 118 114 106 104 102 97 93 91 91 89 87 79 61 33 11 3 352 326 57 43 68 35 18 23 10 352 334 347 352 20 341 13 2 355 336 337 331 328 327 322 313
119 118 117 107 102 99 98 97 97 96 91 86 85 76 58 34 15 3 340 270 44 39 55 48 33 20 2 355 329 359 359 360 341 11 18 354 335 331 329 323 312 311 306
111 111 104 101 104 106 102 99 98 93 82 72 67 84 67 41 20 15 3 33 26 67 80 61 39 17 346 354 339 356 354 347 332 337 19 335 336 335 336 336 341 335 336
107 103 103 104 104 102 100 99 101 99 96 92 79 67 90 58 32 25 21 23 13 1 48 30 36 358 347 341 341 338 348 341 340 352 352 351 359 343 351 354 338 340 338
102 100 98 96 96 98 101 94 90 95 99 98 107 105 73 53 42 28 16 32 11 6 21 19 0 350 342 332 334 355 341 314 352 350 349 348 353 348 351 349 345 339 336
99 99 100 100 97 98 100 103 107 109 114 119 109 84 66 52 37 17 7 2 343 352 17 355 341 342 331 353 7 356 357 351 349 355 354 356 351 350 344 345 336 334 335
103 99 99 100 102 103 95 103 115 126 108 88 83 77 60 40 28 8 12 13 1 26 11 321 309 355 19 16 14 1 8 356 354 359 357 356 346 323 330 344 346 343 337
103 93 73 66 67 68 60 50 43 27 55 50 50 70 64 49 26 12 5 5 350 355 346 30 22 26 26 14 20 11 9 353 358 356 352 347 345 353 356 354 349 350 352
89 88 83 77 75 71 56 53 64 45 49 64 62 46 58 44 5 331 326 333 335 334 9 30 29 27 23 18 14 7 5 359 357 359 355 348 353 357 360 -0 358 352 359
97 93 93 93 91 90 88 80 53 66 67 68 61 76 81 77 331 318 320 320 329 356 35 31 37 31 23 14 10 2 3 0 351 356 354 355 351 357 359 2 2 2 357
105 111 111 112 110 109 104 102 99 65 62 61 65 59 47 1 1 7 1 294 360 33 39 32 32 30 27 18 10 5 359 356 350 352 349 354 352 355 1 6 2 4 356
118 117 115 118 120 123 129 134 127 111 100 94 313 79 31 351 347 5 16 36 37 34 40 34 27 21 25 15 13 7 359 354 352 349 349 352 358 348 3 9 7 5 356
117 117 116 109 100 95 93 88 87 90 111 124 127 233 209 262 303 355 25 44 41 33 30 38 30 22 23 14 12 10 359 355 348 350 349 343 1 348 1 8 14 2 2
85 87 96 107 110 109 101 96 91 82 71 62 53 33 14 67 56 49 49 42 41 37 22 35 34 25 21 17 7 9 0 357 351 352 348 342 354 349 355 9 18 7 4
119 126 115 109 103 101 100 99 98 95 90 84 70 31 348 67 61 58 48 47 44 41 29 25 37 30 21 17 7 7 2 356 349 346 342 340 346 352 352 12 15 14 12
123 108 99 99 103 103 103 103 106 112 117 116 109 67 54 59 65 58 59 53 41 45 38 30 34 37 24 16 8 3 0 353 344 339 337 333 350 353 348 20 16 7 7
106 104 95 90 97 107 101 97 95 89 85 81 77 73 62 58 48 57 55 55 59 46 44 47 36 38 29 19 11 3 1 347 333 331 330 325 349 356 346 26 17 9 3
107 119 124 110 91 82 81 79 76 79 87 83 77 73 72 69 60 46 47 57 47 60 52 50 50 42 29 22 9 1 356 344 330 334 328 321 351 356 348 33 16 16 4
104 101 112 118 115 110 98 87 84 83 83 79 78 78 74 69 67 61 32 38 57 49 48 52 62 37 37 26 14 2 351 348 344 340 331 349 1 355 353 39 19 15 14
113 113 113 106 101 99 100 100 95 91 87 83 76 65 65 70 60 60 49 33 38 49 58 33 68 47 32 25 13 359 354 351 348 343 334 6 9 357 360 44 24 17 11